Scottsdale, AZ

11:03 PM MST on January 17, 2017 (GMT -0700)
Scottsdale

Weather History for KSDL - October, 2013

Change the Weather History Date:

Wednesday, October 2, 2013

  Actual Average Record
Temperature  
Mean Temperature 78 °F -  
Max Temperature 90 °F 90 °F 100 °F (2012)
Min Temperature 66 °F 68 °F 59 °F (2002)
Cooling Degree Days 13    
Growing Degree Days 28 (Base 50)    
Moisture  
Dew Point 42 °F    
Average Humidity 27    
Maximum Humidity 42    
Minimum Humidity 18    
Precipitation  
Precipitation 0.00 in - - ()
Sea Level Pressure  
Sea Level Pressure 29.83 in    
Wind  
Wind Speed 2 mph (SSE)    
Max Wind Speed 7 mph    
Max Gust Speed -    
Visibility 10 miles    
Events      
Averages and records for this station are not official NWS values.
T = Trace of Precipitation, MM = Missing Value Source: NWS Daily Summary

Daily Weather History Graph

Daily Weather History Graph

Search for Another Location

Airport or City:

Trip Planner

Search our weather history database for the weather conditions in past years. The results will help you decide how hot, cold, wet, or windy it might be!

Date:

Astronomy

Oct. 02, 2013 Rise Set
Actual Time 6:22 AM MST 6:10 PM MST
Civil Twilight 5:58 AM MST 6:35 PM MST
Nautical Twilight 5:29 AM MST 7:03 PM MST
Astronomical Twilight 5:00 AM MST 7:32 PM MST
Moon 4:05 AM MST (10/2) 4:44 PM MST (10/2)
Length of Visible Light 12h 36m
Length of Day
11h 47m
Waning Crescent, 6% of the Moon is Illuminated
Oct 2
Waning Crescent
Oct 4
New
Oct 11
First Quarter
Oct 18
Full
Oct 26
Last Quarter

Hourly Weather History & Observations

Time (MST) Temp. Dew Point Humidity Pressure Visibility Wind Dir Wind Speed Gust Speed Precip Events Conditions
12:53 AM 75.9 °F 39.0 °F 26% 29.84 in 10.0 mi North 3.5 mph - N/A   Clear
1:53 AM 72.0 °F 42.1 °F 34% 29.84 in 10.0 mi Calm Calm - N/A   Clear
2:53 AM 70.0 °F 42.1 °F 36% 29.83 in 10.0 mi Calm Calm - N/A   Clear
3:53 AM 69.1 °F 41.0 °F 36% 29.85 in 10.0 mi Calm Calm - N/A   Clear
4:53 AM 68.0 °F 42.1 °F 39% 29.86 in 10.0 mi Calm Calm - N/A   Clear
5:53 AM 66.9 °F 42.1 °F 40% 29.86 in 10.0 mi Calm Calm - N/A   Clear
6:53 AM 66.9 °F 43.0 °F 42% 29.87 in 10.0 mi Calm Calm - N/A   Clear
7:53 AM 70.0 °F 42.1 °F 36% 29.89 in 10.0 mi SSW 3.5 mph - N/A   Clear
8:53 AM 75.9 °F 42.1 °F 30% 29.90 in 10.0 mi SSE 3.5 mph - N/A   Clear
9:53 AM 80.1 °F 42.1 °F 26% 29.91 in 10.0 mi SSE 4.6 mph - N/A   Clear
10:53 AM 82.9 °F 43.0 °F 24% 29.89 in 10.0 mi South 4.6 mph - N/A   Clear
11:53 AM 84.9 °F 43.0 °F 23% 29.87 in 10.0 mi SSE 6.9 mph - N/A   Clear
12:53 PM 88.0 °F 42.1 °F 20% 29.84 in 10.0 mi SW 5.8 mph - N/A   Clear
1:53 PM 89.1 °F 42.1 °F 19% 29.81 in 10.0 mi NNE 3.5 mph - N/A   Clear
2:53 PM 89.1 °F 42.1 °F 19% 29.79 in 10.0 mi West 4.6 mph - N/A   Clear
3:53 PM 89.1 °F 41.0 °F 19% 29.77 in 10.0 mi SSE 4.6 mph - N/A   Clear
4:53 PM 90.0 °F 41.0 °F 18% 29.75 in 10.0 mi South 4.6 mph - N/A   Clear
5:53 PM 88.0 °F 41.0 °F 19% 29.76 in 10.0 mi Calm Calm - N/A   Clear
6:53 PM 86.0 °F 42.1 °F 21% 29.76 in 10.0 mi Calm Calm - N/A   Clear
7:53 PM 84.0 °F 41.0 °F 22% 29.78 in 10.0 mi Calm Calm - N/A   Clear
8:53 PM 81.0 °F 41.0 °F 24% 29.77 in 10.0 mi NNE 3.5 mph - N/A   Clear
9:53 PM 80.1 °F 41.0 °F 25% 29.78 in 10.0 mi NNE 3.5 mph - N/A   Clear
10:53 PM 75.0 °F 43.0 °F 32% 29.77 in 10.0 mi Calm Calm - N/A   Clear